Location: Atbuku
(36.4936°N, 30.4362°E)
Time: 21:35:04
(UTC+00:00)

Cosmos 1553 Rocket - Pass Details

Date: 11 December 2025
Orbit: 942 x 1006 km, 82.9° (Epoch: 12 January)

Event Time Altitude Azimuth Distance (km) Brightness Sun altitude
Rises 16:14:12 0° 175° (S) 3,605 7.1 -17.8°
Reaches altitude 10° 16:16:41 10° 172° (S) 2,670 6.4 -18.3°
Maximum altitude 16:22:41 63° 93° (E) 1,067 3.9 -19.4°
Drops below altitude 10° 16:28:50 10° 13° (NNE) 2,728 6.1 -20.6°
Enters shadow 16:30:10 - 12° (NNE) 3,223 6.5 -20.9°
